Location: Marse
(42.1502°N, 110.9866°W)
Time: 16:08:29
(UTC+00:00)

Oscar 19 - Pass Details

Date: 06 July 2022
Orbit: 773 x 790 km, 98.8° (Epoch: 13 August)

Event Time Altitude Azimuth Distance (km) Brightness Sun altitude
Rises 09:27:48 0° 36° (NE) 3,257 15.5 -19.6°
Reaches altitude 10° 09:31:54 10° 69° (ENE) 2,323 13.8 -19.2°
Maximum altitude 09:33:38 12° 89° (E) 2,208 13.4 -19.0°
Drops below altitude 10° 09:35:22 10° 109° (ESE) 2,319 13.2 -18.9°
Sets 09:39:26 0° 141° (SE) 3,241 13.6 -18.5°
